• In Hungary
  • List of Countries
  • For 7 days
  • Water Temperature
  • Satellite Maps
  • Weather Map
  • News
  • Weather Widgets
  • user-avatar
    Login

    Hourly Weather Posada Jesliska

    Today, 23 May, Wednesday

    Time Temperature Precipitation Wind Pressure Humidity
    00:00 +13°C° 0 mm 1 mps 724 mmHg 94%
    01:00 +13°C° 0 mm 2 mps 724 mmHg 94%
    02:00 +13°C° 0 mm 2 mps 724 mmHg 94%
    03:00 +13°C° 0 mm 1 mps 724 mmHg 94%
    04:00 +13°C° 0 mm 1 mps 724 mmHg 95%
    05:00 +15°C° 0 mm 1 mps 724 mmHg 90%
    06:00 +16°C° 0 mm 1 mps 725 mmHg 85%
    07:00 +19°C° 0 mm 1 mps 725 mmHg 79%
    08:00 +20°C° 0.5 mm 1 mps 726 mmHg 77%
    09:00 +21°C° 0.5 mm 1 mps 726 mmHg 75%
    10:00 +20°C° 0.5 mm 0 mps 726 mmHg 74%
    11:00 +23°C° 0.3 mm 1 mps 726 mmHg 69%
    12:00 +24°C° 0.3 mm 1 mps 726 mmHg 64%
    13:00 +25°C° 0.3 mm 1 mps 726 mmHg 59%
    14:00 +25°C° 0.7 mm 1 mps 725 mmHg 63%
    15:00 +24°C° 0.7 mm 1 mps 725 mmHg 68%
    16:00 +23°C° 0.7 mm 2 mps 725 mmHg 73%
    17:00 +21°C° 0.5 mm 2 mps 724 mmHg 78%
    18:00 +19°C° 0.5 mm 2 mps 724 mmHg 83%
    19:00 +18°C° 0.5 mm 2 mps 724 mmHg 89%
    20:00 +17°C° 0.1 mm 2 mps 724 mmHg 90%
    21:00 +16°C° 0.1 mm 2 mps 725 mmHg 92%
    22:00 +15°C° 0.1 mm 2 mps 725 mmHg 93%
    23:00 +15°C° 0.1 mm 2 mps 725 mmHg 94%

    Tomorrow, 24 May, Thursday

    Time Temperature Precipitation Wind Pressure Humidity
    00:00 +15°C° 0.1 mm 2 mps 725 mmHg 95%
    01:00 +14°C° 0.1 mm 2 mps 725 mmHg 96%
    02:00 +14°C° 0.1 mm 2 mps 725 mmHg 96%
    03:00 +14°C° 0.1 mm 2 mps 725 mmHg 96%
    04:00 +13°C° 0.1 mm 2 mps 725 mmHg 97%
    05:00 +14°C° 0 mm 2 mps 725 mmHg 94%
    06:00 +15°C° 0 mm 2 mps 725 mmHg 92%
    07:00 +16°C° 0 mm 2 mps 725 mmHg 89%
    08:00 +18°C° 0 mm 3 mps 725 mmHg 83%
    09:00 +19°C° 0 mm 3 mps 726 mmHg 78%
    10:00 +20°C° 0 mm 3 mps 726 mmHg 72%
    11:00 +21°C° 0.2 mm 4 mps 726 mmHg 71%
    12:00 +22°C° 0.2 mm 4 mps 725 mmHg 69%
    13:00 +22°C° 0.2 mm 4 mps 725 mmHg 67%
    14:00 +22°C° 0.4 mm 4 mps 725 mmHg 70%
    15:00 +21°C° 0.4 mm 4 mps 725 mmHg 72%
    16:00 +21°C° 0.4 mm 4 mps 724 mmHg 74%
    17:00 +20°C° 0.3 mm 3 mps 724 mmHg 78%
    18:00 +18°C° 0.3 mm 3 mps 724 mmHg 83%
    19:00 +17°C° 0.3 mm 3 mps 724 mmHg 87%
    20:00 +16°C° 0 mm 2 mps 724 mmHg 89%
    21:00 +15°C° 0 mm 2 mps 725 mmHg 91%
    22:00 +14°C° 0 mm 2 mps 725 mmHg 93%
    23:00 +13°C° 0 mm 2 mps 725 mmHg 94%

    Day after tomorrow, 25 May, Friday

    Time Temperature Precipitation Wind Pressure Humidity
    00:00 +13°C° 0 mm 2 mps 724 mmHg 94%
    01:00 +12°C° 0 mm 2 mps 724 mmHg 95%
    02:00 +12°C° 0 mm 2 mps 724 mmHg 95%
    03:00 +12°C° 0 mm 2 mps 724 mmHg 95%
    04:00 +10°C° 0 mm 2 mps 724 mmHg 95%
    05:00 +13°C° 0 mm 2 mps 724 mmHg 91%
    06:00 +15°C° 0 mm 2 mps 725 mmHg 86%
    07:00 +16°C° 0 mm 2 mps 725 mmHg 81%
    08:00 +18°C° 0.1 mm 3 mps 725 mmHg 75%
    09:00 +19°C° 0.1 mm 3 mps 725 mmHg 69%
    10:00 +21°C° 0.1 mm 3 mps 725 mmHg 62%
    11:00 +21°C° 0.2 mm 3 mps 725 mmHg 62%
    12:00 +22°C° 0.2 mm 3 mps 725 mmHg 63%
    13:00 +22°C° 0.2 mm 4 mps 725 mmHg 63%
    14:00 +22°C° 0.4 mm 3 mps 725 mmHg 67%
    15:00 +21°C° 0.4 mm 3 mps 725 mmHg 71%
    16:00 +21°C° 0.4 mm 3 mps 725 mmHg 75%
    17:00 +20°C° 0.2 mm 2 mps 725 mmHg 80%
    18:00 +18°C° 0.2 mm 2 mps 725 mmHg 85%
    19:00 +17°C° 0.2 mm 2 mps 725 mmHg 90%
    20:00 +16°C° 0 mm 2 mps 725 mmHg 92%
    21:00 +15°C° 0 mm 2 mps 725 mmHg 93%
    22:00 +14°C° 0 mm 1 mps 725 mmHg 95%
    23:00 +14°C° 0 mm 1 mps 725 mmHg 95%

    26 May, Saturday

    Time Temperature Precipitation Wind Pressure Humidity
    00:00 +14°C° 0 mm 1 mps 725 mmHg 95%
    01:00 +13°C° 0 mm 1 mps 725 mmHg 95%
    02:00 +13°C° 0 mm 1 mps 726 mmHg 95%
    03:00 +13°C° 0 mm 1 mps 726 mmHg 95%
    04:00 +13°C° 0 mm 1 mps 726 mmHg 95%
    05:00 +15°C° 0.1 mm 1 mps 726 mmHg 90%
    06:00 +18°C° 0.1 mm 1 mps 727 mmHg 86%
    07:00 +20°C° 0.1 mm 1 mps 727 mmHg 81%
    08:00 +22°C° 0.4 mm 1 mps 727 mmHg 76%
    09:00 +23°C° 0.4 mm 2 mps 727 mmHg 71%
    10:00 +24°C° 0.4 mm 2 mps 728 mmHg 67%
    11:00 +25°C° 0.8 mm 2 mps 728 mmHg 66%
    12:00 +25°C° 0.8 mm 3 mps 727 mmHg 65%
    13:00 +25°C° 0.8 mm 3 mps 727 mmHg 65%
    14:00 +25°C° 0.7 mm 3 mps 727 mmHg 67%
    15:00 +25°C° 0.7 mm 3 mps 727 mmHg 69%
    16:00 +24°C° 0.7 mm 3 mps 727 mmHg 71%
    17:00 +23°C° 0.4 mm 2 mps 727 mmHg 77%
    18:00 +20°C° 0.4 mm 2 mps 727 mmHg 82%
    19:00 +19°C° 0.4 mm 2 mps 727 mmHg 88%
    20:00 +18°C° 0 mm 2 mps 727 mmHg 89%
    21:00 +18°C° 0 mm 2 mps 727 mmHg 90%
    22:00 +17°C° 0 mm 2 mps 727 mmHg 92%
    23:00 +16°C° 0.1 mm 2 mps 727 mmHg 92%

    27 May, Sunday

    Time Temperature Precipitation Wind Pressure Humidity
    00:00 +16°C° 0.1 mm 2 mps 727 mmHg 93%
    01:00 +16°C° 0.1 mm 2 mps 727 mmHg 93%
    02:00 +16°C° 0.1 mm 2 mps 727 mmHg 94%
    03:00 +15°C° 0.1 mm 1 mps 727 mmHg 94%
    04:00 +15°C° 0.1 mm 1 mps 727 mmHg 95%
    05:00 +16°C° 0 mm 2 mps 727 mmHg 91%
    06:00 +17°C° 0 mm 2 mps 727 mmHg 87%
    07:00 +18°C° 0 mm 2 mps 728 mmHg 83%
    08:00 +20°C° 0.1 mm 2 mps 728 mmHg 77%
    09:00 +21°C° 0.1 mm 2 mps 728 mmHg 71%
    10:00 +24°C° 0.1 mm 2 mps 728 mmHg 65%
    11:00 +24°C° 0.2 mm 3 mps 728 mmHg 65%
    12:00 +25°C° 0.2 mm 3 mps 727 mmHg 64%
    13:00 +25°C° 0.2 mm 3 mps 727 mmHg 63%
    14:00 +25°C° 0.4 mm 3 mps 727 mmHg 66%
    15:00 +24°C° 0.4 mm 3 mps 727 mmHg 68%
    16:00 +24°C° 0.4 mm 3 mps 727 mmHg 70%
    17:00 +21°C° 0 mm 3 mps 726 mmHg 75%
    18:00 +19°C° 0 mm 2 mps 726 mmHg 80%
    19:00 +18°C° 0 mm 2 mps 726 mmHg 84%
    20:00 +17°C° 0 mm 2 mps 726 mmHg 86%
    21:00 +15°C° 0 mm 2 mps 726 mmHg 88%
    22:00 +14°C° 0 mm 1 mps 726 mmHg 90%
    23:00 +14°C° 0 mm 1 mps 726 mmHg 91%

    28 May, Monday

    Time Temperature Precipitation Wind Pressure Humidity
    00:00 +13°C° 0 mm 1 mps 726 mmHg 92%
    01:00 +13°C° 0 mm 1 mps 726 mmHg 93%
    02:00 +13°C° 0 mm 1 mps 726 mmHg 94%
    03:00 +13°C° 0 mm 1 mps 726 mmHg 94%
    04:00 +13°C° 0 mm 1 mps 726 mmHg 95%
    05:00 +14°C° 0 mm 1 mps 727 mmHg 88%
    06:00 +16°C° 0 mm 2 mps 727 mmHg 81%
    07:00 +18°C° 0 mm 2 mps 727 mmHg 74%
    08:00 +20°C° 0 mm 2 mps 727 mmHg 68%
    09:00 +21°C° 0 mm 2 mps 727 mmHg 62%
    10:00 +24°C° 0 mm 2 mps 728 mmHg 56%
    11:00 +25°C° 0 mm 2 mps 727 mmHg 55%
    12:00 +25°C° 0 mm 3 mps 727 mmHg 53%
    13:00 +25°C° 0 mm 3 mps 727 mmHg 51%
    14:00 +25°C° 0 mm 3 mps 727 mmHg 52%
    15:00 +24°C° 0 mm 3 mps 727 mmHg 53%
    16:00 +23°C° 0 mm 4 mps 726 mmHg 55%
    17:00 +21°C° 0 mm 3 mps 726 mmHg 62%
    18:00 +19°C° 0 mm 3 mps 726 mmHg 69%
    19:00 +17°C° 0 mm 2 mps 726 mmHg 76%
    20:00 +15°C° 0 mm 2 mps 726 mmHg 80%
    21:00 +14°C° 0 mm 2 mps 726 mmHg 84%
    22:00 +13°C° 0 mm 2 mps 726 mmHg 88%
    23:00 +12°C° 0 mm 2 mps 726 mmHg 88%
    Show more